Wetterdaten: aktuell Montag, 20.05.2024 18:45
Datum Zeit Temp. A. Temp. A. min Temp. A. max Feuchte A. Luftdruck Regen Wind Richtung Richtung Sonnenschein UV Solar Windben
20.05.2024 18:45 23,2 C 23,1 C 23,2 C 55 % 1010,4 hPa 0,0 l/m 0,0 km/h (0 Bft) SO 135 5 min 1,0 UV-I 320 W/m 4,8 km/h (1 Bft)
20.05.2024 18:40 23,1 C 23,1 C 23,2 C 56 % 1010,4 hPa 0,0 l/m 1,6 km/h (1 Bft) SO 135 5 min 1,0 UV-I 362 W/m 6,4 km/h (2 Bft)
20.05.2024 18:35 23,2 C 23,1 C 23,2 C 55 % 1010,4 hPa 0,0 l/m 0,0 km/h (0 Bft) O-SO 112 5 min 1,0 UV-I 376 W/m 4,8 km/h (1 Bft)
20.05.2024 18:30 23,1 C 23,0 C 23,1 C 58 % 1010,3 hPa 0,0 l/m 0,0 km/h (0 Bft) O-SO 112 5 min 1,0 UV-I 394 W/m 4,8 km/h (1 Bft)
20.05.2024 18:25 23,0 C 22,8 C 23,0 C 57 % 1010,4 hPa 0,0 l/m 1,6 km/h (1 Bft) O-SO 112 5 min 1,1 UV-I 401 W/m 6,4 km/h (2 Bft)
20.05.2024 18:20 22,8 C 22,8 C 22,8 C 58 % 1010,4 hPa 0,0 l/m 1,6 km/h (1 Bft) O-SO 112 5 min 1,1 UV-I 404 W/m 6,4 km/h (2 Bft)
20.05.2024 18:15 22,8 C 22,7 C 22,8 C 58 % 1010,5 hPa 0,0 l/m 3,2 km/h (1 Bft) O-SO 112 5 min 1,1 UV-I 394 W/m 9,7 km/h (2 Bft)
20.05.2024 18:10 22,7 C 22,5 C 22,7 C 60 % 1010,5 hPa 0,0 l/m 3,2 km/h (1 Bft) SO 135 5 min 1,2 UV-I 420 W/m 8,0 km/h (2 Bft)
20.05.2024 18:05 22,5 C 22,4 C 22,6 C 61 % 1010,5 hPa 0,0 l/m 4,8 km/h (1 Bft) NO 45 5 min 1,3 UV-I 422 W/m 11,3 km/h (2 Bft)
20.05.2024 18:00 22,4 C 22,4 C 22,4 C 61 % 1010,5 hPa 0,0 l/m 4,8 km/h (1 Bft) NO 45 5 min 1,3 UV-I 485 W/m 11,3 km/h (2 Bft)
20.05.2024 17:55 22,4 C 22,3 C 22,4 C 63 % 1010,5 hPa 0,0 l/m 4,8 km/h (1 Bft) N-NO 22 5 min 1,5 UV-I 503 W/m 6,4 km/h (2 Bft)
20.05.2024 17:50 22,3 C 22,3 C 22,3 C 62 % 1010,5 hPa 0,0 l/m 6,4 km/h (2 Bft) O-NO 67 5 min 1,5 UV-I 540 W/m 12,9 km/h (3 Bft)
20.05.2024 17:45 22,4 C 22,4 C 22,4 C 62 % 1010,5 hPa 0,0 l/m 8,0 km/h (2 Bft) N-NW 337 5 min 1,6 UV-I 568 W/m 14,5 km/h (3 Bft)
20.05.2024 17:40 22,4 C 22,3 C 22,4 C 63 % 1010,6 hPa 0,0 l/m 4,8 km/h (1 Bft) N-NW 337 5 min 1,6 UV-I 587 W/m 9,7 km/h (2 Bft)
20.05.2024 17:35 22,5 C 22,5 C 22,8 C 61 % 1010,7 hPa 0,0 l/m 4,8 km/h (1 Bft) N-NO 22 0 min 1,3 UV-I 271 W/m 11,3 km/h (2 Bft)
20.05.2024 17:30 22,8 C 22,8 C 23,0 C 60 % 1010,7 hPa 0,0 l/m 8,0 km/h (2 Bft) NO 45 5 min 1,7 UV-I 594 W/m 16,1 km/h (3 Bft)
20.05.2024 17:25 23,0 C 23,0 C 23,4 C 60 % 1010,7 hPa 0,0 l/m 8,0 km/h (2 Bft) N 360 5 min 1,9 UV-I 605 W/m 16,1 km/h (3 Bft)
20.05.2024 17:20 23,4 C 23,4 C 23,6 C 59 % 1010,8 hPa 0,0 l/m 8,0 km/h (2 Bft) N-NO 22 5 min 2,1 UV-I 619 W/m 14,5 km/h (3 Bft)
20.05.2024 17:15 23,5 C 23,2 C 23,5 C 59 % 1010,8 hPa 0,0 l/m 3,2 km/h (1 Bft) S 180 5 min 2,1 UV-I 605 W/m 8,0 km/h (2 Bft)
20.05.2024 17:10 23,2 C 22,8 C 23,2 C 62 % 1010,8 hPa 0,0 l/m 4,8 km/h (1 Bft) S-SW 202 5 min 2,3 UV-I 598 W/m 11,3 km/h (2 Bft)
20.05.2024 17:05 22,8 C 22,5 C 22,8 C 64 % 1010,8 hPa 0,0 l/m 4,8 km/h (1 Bft) SW 225 5 min 2,3 UV-I 596 W/m 9,7 km/h (2 Bft)
20.05.2024 17:00 22,5 C 22,4 C 22,6 C 63 % 1010,8 hPa 0,0 l/m 4,8 km/h (1 Bft) SW 225 5 min 2,3 UV-I 589 W/m 8,0 km/h (2 Bft)
20.05.2024 16:55 22,6 C 22,6 C 22,6 C 64 % 1010,8 hPa 0,0 l/m 4,8 km/h (1 Bft) S-SW 202 5 min 2,4 UV-I 603 W/m 6,4 km/h (2 Bft)
20.05.2024 16:50 22,6 C 22,4 C 22,6 C 62 % 1010,8 hPa 0,0 l/m 3,2 km/h (1 Bft) S-SW 202 5 min 2,5 UV-I 622 W/m 6,4 km/h (2 Bft)
20.05.2024 16:45 22,6 C 22,6 C 22,9 C 61 % 1010,9 hPa 0,0 l/m 4,8 km/h (1 Bft) S-SW 202 5 min 2,5 UV-I 645 W/m 8,0 km/h (2 Bft)
20.05.2024 16:40 22,9 C 22,9 C 23,3 C 60 % 1010,8 hPa 0,0 l/m 6,4 km/h (2 Bft) S-SW 202 0 min 1,5 UV-I 144 W/m 9,7 km/h (2 Bft)
20.05.2024 16:35 23,3 C 23,3 C 23,7 C 58 % 1010,9 hPa 0,0 l/m 4,8 km/h (1 Bft) SW 225 5 min 2,5 UV-I 629 W/m 9,7 km/h (2 Bft)
20.05.2024 16:30 23,7 C 23,5 C 23,7 C 59 % 1011,0 hPa 0,0 l/m 3,2 km/h (1 Bft) SO 135 5 min 2,7 UV-I 629 W/m 9,7 km/h (2 Bft)
20.05.2024 16:25 23,6 C 23,5 C 23,6 C 56 % 1011,0 hPa 0,0 l/m 1,6 km/h (1 Bft) SO 135 5 min 2,8 UV-I 650 W/m 6,4 km/h (2 Bft)
20.05.2024 16:20 23,5 C 23,5 C 23,5 C 59 % 1011,0 hPa 0,0 l/m 1,6 km/h (1 Bft) O 90 5 min 2,9 UV-I 668 W/m 8,0 km/h (2 Bft)
20.05.2024 16:15 23,5 C 23,5 C 23,6 C 59 % 1011,1 hPa 0,0 l/m 3,2 km/h (1 Bft) O 90 5 min 2,9 UV-I 668 W/m 9,7 km/h (2 Bft)
20.05.2024 16:10 23,6 C 23,5 C 23,6 C 59 % 1011,0 hPa 0,0 l/m 4,8 km/h (1 Bft) O 90 5 min 3,0 UV-I 666 W/m 9,7 km/h (2 Bft)
20.05.2024 16:05 23,5 C 23,4 C 23,5 C 60 % 1011,1 hPa 0,0 l/m 3,2 km/h (1 Bft) SO 135 5 min 3,1 UV-I 677 W/m 9,7 km/h (2 Bft)
20.05.2024 16:00 23,5 C 23,3 C 23,5 C 59 % 1011,2 hPa 0,0 l/m 1,6 km/h (1 Bft) SO 135 5 min 3,3 UV-I 700 W/m 8,0 km/h (2 Bft)
20.05.2024 15:55 23,3 C 23,2 C 23,4 C 60 % 1011,2 hPa 0,0 l/m 1,6 km/h (1 Bft) SO 135 5 min 3,5 UV-I 745 W/m 6,4 km/h (2 Bft)
20.05.2024 15:50 23,3 C 23,1 C 23,3 C 61 % 1011,2 hPa 0,0 l/m 4,8 km/h (1 Bft) S-SO 157 5 min 3,6 UV-I 786 W/m 12,9 km/h (3 Bft)
20.05.2024 15:45 23,1 C 23,0 C 23,1 C 60 % 1011,2 hPa 0,0 l/m 3,2 km/h (1 Bft) S-SO 157 5 min 3,7 UV-I 849 W/m 9,7 km/h (2 Bft)
20.05.2024 15:40 23,0 C 22,9 C 23,0 C 60 % 1011,2 hPa 0,0 l/m 4,8 km/h (1 Bft) S-SO 157 5 min 3,7 UV-I 870 W/m 11,3 km/h (2 Bft)
20.05.2024 15:35 22,9 C 22,6 C 22,9 C 60 % 1011,1 hPa 0,0 l/m 3,2 km/h (1 Bft) O 90 5 min 3,6 UV-I 896 W/m 12,9 km/h (3 Bft)
20.05.2024 15:30 22,6 C 22,3 C 22,6 C 62 % 1011,2 hPa 0,0 l/m 3,2 km/h (1 Bft) SO 135 5 min 3,7 UV-I 933 W/m 8,0 km/h (2 Bft)
20.05.2024 15:25 22,3 C 22,3 C 22,6 C 64 % 1011,2 hPa 0,0 l/m 4,8 km/h (1 Bft) O-SO 112 5 min 3,4 UV-I 896 W/m 12,9 km/h (3 Bft)
20.05.2024 15:20 22,6 C 22,6 C 22,9 C 63 % 1011,3 hPa 0,0 l/m 3,2 km/h (1 Bft) O 90 0 min 1,9 UV-I 302 W/m 11,3 km/h (2 Bft)
20.05.2024 15:15 22,9 C 22,9 C 23,2 C 62 % 1011,4 hPa 0,0 l/m 3,2 km/h (1 Bft) O 90 0 min 1,6 UV-I 229 W/m 14,5 km/h (3 Bft)
20.05.2024 15:10 23,2 C 23,2 C 23,2 C 61 % 1011,4 hPa 0,0 l/m 3,2 km/h (1 Bft) SO 135 5 min 3,5 UV-I 846 W/m 14,5 km/h (3 Bft)
20.05.2024 15:05 23,2 C 23,1 C 23,2 C 62 % 1011,5 hPa 0,0 l/m 3,2 km/h (1 Bft) S 180 5 min 3,7 UV-I 872 W/m 8,0 km/h (2 Bft)
20.05.2024 15:00 23,2 C 23,1 C 23,3 C 60 % 1011,5 hPa 0,0 l/m 4,8 km/h (1 Bft) SO 135 5 min 4,1 UV-I 909 W/m 9,7 km/h (2 Bft)
20.05.2024 14:55 23,1 C 22,9 C 23,1 C 62 % 1011,6 hPa 0,0 l/m 1,6 km/h (1 Bft) O-SO 112 5 min 4,2 UV-I 919 W/m 4,8 km/h (1 Bft)
20.05.2024 14:50 23,0 C 22,9 C 23,1 C 61 % 1011,6 hPa 0,0 l/m 1,6 km/h (1 Bft) O-SO 112 5 min 4,3 UV-I 879 W/m 6,4 km/h (2 Bft)
20.05.2024 14:45 22,9 C 22,5 C 22,9 C 63 % 1011,8 hPa 0,0 l/m 1,6 km/h (1 Bft) O 90 5 min 4,2 UV-I 951 W/m 8,0 km/h (2 Bft)
20.05.2024 14:40 22,4 C 22,1 C 22,4 C 66 % 1011,8 hPa 0,0 l/m 4,8 km/h (1 Bft) N 360 5 min 4,0 UV-I 946 W/m 11,3 km/h (2 Bft)
20.05.2024 14:35 22,2 C 21,7 C 22,2 C 66 % 1011,9 hPa 0,0 l/m 6,4 km/h (2 Bft) S 180 5 min 4,5 UV-I 930 W/m 12,9 km/h (3 Bft)
20.05.2024 14:30 21,6 C 21,3 C 21,6 C 69 % 1011,9 hPa 0,0 l/m 4,8 km/h (1 Bft) S-SW 202 5 min 4,6 UV-I 905 W/m 11,3 km/h (2 Bft)
20.05.2024 14:25 21,3 C 20,9 C 21,3 C 70 % 1012,0 hPa 0,0 l/m 1,6 km/h (1 Bft) NO 45 5 min 4,6 UV-I 896 W/m 4,8 km/h (1 Bft)
20.05.2024 14:20 20,9 C 20,8 C 20,9 C 70 % 1012,1 hPa 0,0 l/m 3,2 km/h (1 Bft) NO 45 5 min 4,6 UV-I 904 W/m 6,4 km/h (2 Bft)
20.05.2024 14:15 20,8 C 20,4 C 20,8 C 72 % 1012,1 hPa 0,0 l/m 1,6 km/h (1 Bft) NW 315 5 min 4,5 UV-I 926 W/m 4,8 km/h (1 Bft)
20.05.2024 14:10 20,4 C 20,3 C 20,4 C 72 % 1012,2 hPa 0,0 l/m 3,2 km/h (1 Bft) N-NW 337 5 min 4,7 UV-I 947 W/m 9,7 km/h (2 Bft)
20.05.2024 14:05 20,3 C 20,1 C 20,3 C 74 % 1012,1 hPa 0,0 l/m 3,2 km/h (1 Bft) W-SW 247 5 min 4,6 UV-I 930 W/m 8,0 km/h (2 Bft)
20.05.2024 14:00 20,1 C 20,1 C 20,2 C 71 % 1012,2 hPa 0,0 l/m 3,2 km/h (1 Bft) W-NW 292 5 min 4,5 UV-I 928 W/m 9,7 km/h (2 Bft)
20.05.2024 13:55 20,1 C 19,9 C 20,1 C 73 % 1012,1 hPa 0,0 l/m 3,2 km/h (1 Bft) N-NW 337 5 min 4,4 UV-I 944 W/m 6,4 km/h (2 Bft)
20.05.2024 13:50 19,9 C 19,9 C 20,0 C 71 % 1012,1 hPa 0,0 l/m 4,8 km/h (1 Bft) N-NW 337 5 min 4,2 UV-I 928 W/m 9,7 km/h (2 Bft)
20.05.2024 13:45 20,0 C 20,0 C 20,1 C 73 % 1012,2 hPa 0,0 l/m 3,2 km/h (1 Bft) W-SW 247 5 min 4,3 UV-I 970 W/m 6,4 km/h (2 Bft)
20.05.2024 13:40 20,1 C 20,0 C 20,2 C 74 % 1012,2 hPa 0,0 l/m 3,2 km/h (1 Bft) SW 225 5 min 4,4 UV-I 933 W/m 8,0 km/h (2 Bft)
20.05.2024 13:35 20,2 C 20,2 C 20,3 C 72 % 1012,1 hPa 0,0 l/m 4,8 km/h (1 Bft) NW 315 5 min 4,4 UV-I 939 W/m 9,7 km/h (2 Bft)
20.05.2024 13:30 20,3 C 20,2 C 20,4 C 71 % 1012,2 hPa 0,0 l/m 3,2 km/h (1 Bft) N-NW 337 5 min 4,1 UV-I 891 W/m 8,0 km/h (2 Bft)
20.05.2024 13:25 20,4 C 20,3 C 20,4 C 71 % 1012,2 hPa 0,0 l/m 4,8 km/h (1 Bft) N-NO 22 5 min 4,0 UV-I 889 W/m 8,0 km/h (2 Bft)
20.05.2024 13:20 20,3 C 20,2 C 20,3 C 72 % 1012,3 hPa 0,0 l/m 1,6 km/h (1 Bft) NO 45 5 min 4,3 UV-I 942 W/m 8,0 km/h (2 Bft)
20.05.2024 13:15 20,2 C 20,2 C 20,3 C 73 % 1012,3 hPa 0,0 l/m 1,6 km/h (1 Bft) O-NO 67 5 min 4,4 UV-I 925 W/m 4,8 km/h (1 Bft)
20.05.2024 13:10 20,3 C 20,1 C 20,3 C 70 % 1012,3 hPa 0,0 l/m 1,6 km/h (1 Bft) O-NO 67 5 min 4,4 UV-I 891 W/m 6,4 km/h (2 Bft)
20.05.2024 13:05 20,1 C 19,7 C 20,1 C 74 % 1012,3 hPa 0,0 l/m 0,0 km/h (0 Bft) S-SO 157 5 min 4,3 UV-I 844 W/m 3,2 km/h (1 Bft)
20.05.2024 13:00 19,7 C 19,4 C 19,7 C 73 % 1012,4 hPa 0,0 l/m 1,6 km/h (1 Bft) O-SO 112 5 min 4,2 UV-I 830 W/m 8,0 km/h (2 Bft)
20.05.2024 12:55 19,4 C 18,9 C 19,4 C 74 % 1012,4 hPa 0,0 l/m 3,2 km/h (1 Bft) NO 45 5 min 4,3 UV-I 858 W/m 8,0 km/h (2 Bft)
20.05.2024 12:50 18,9 C 18,6 C 18,9 C 76 % 1012,5 hPa 0,0 l/m 3,2 km/h (1 Bft) NO 45 5 min 4,2 UV-I 874 W/m 8,0 km/h (2 Bft)
20.05.2024 12:45 18,5 C 18,3 C 18,5 C 77 % 1012,4 hPa 0,0 l/m 0,0 km/h (0 Bft) N-NO 22 5 min 3,7 UV-I 492 W/m 4,8 km/h (1 Bft)
20.05.2024 12:40 18,3 C 17,9 C 18,3 C 75 % 1012,4 hPa 0,0 l/m 3,2 km/h (1 Bft) N-NW 337 5 min 4,2 UV-I 803 W/m 6,4 km/h (2 Bft)
20.05.2024 12:35 17,9 C 17,7 C 17,9 C 77 % 1012,4 hPa 0,0 l/m 1,6 km/h (1 Bft) O-NO 67 5 min 4,5 UV-I 984 W/m 6,4 km/h (2 Bft)
20.05.2024 12:30 17,7 C 17,6 C 17,7 C 77 % 1012,4 hPa 0,0 l/m 0,0 km/h (0 Bft) N 0 5 min 3,7 UV-I 531 W/m 0,0 km/h (0 Bft)
20.05.2024 12:25 17,6 C 17,6 C 17,7 C 79 % 1012,4 hPa 0,0 l/m 0,0 km/h (0 Bft) N-NW 337 5 min 2,7 UV-I 506 W/m 3,2 km/h (1 Bft)
20.05.2024 12:20 17,7 C 17,4 C 17,7 C 82 % 1012,4 hPa 0,0 l/m 3,2 km/h (1 Bft) NO 45 0 min 2,5 UV-I 406 W/m 8,0 km/h (2 Bft)
20.05.2024 12:15 17,4 C 17,3 C 17,4 C 82 % 1012,4 hPa 0,0 l/m 3,2 km/h (1 Bft) NO 45 0 min 2,2 UV-I 374 W/m 4,8 km/h (1 Bft)
20.05.2024 12:10 17,3 C 17,3 C 17,3 C 82 % 1012,4 hPa 0,0 l/m 3,2 km/h (1 Bft) N-NW 337 0 min 2,1 UV-I 362 W/m 6,4 km/h (2 Bft)
20.05.2024 12:05 17,3 C 17,2 C 17,3 C 83 % 1012,4 hPa 0,0 l/m 1,6 km/h (1 Bft) N-NW 337 0 min 2,1 UV-I 357 W/m 6,4 km/h (2 Bft)
20.05.2024 12:00 17,2 C 17,1 C 17,2 C 83 % 1012,4 hPa 0,0 l/m 1,6 km/h (1 Bft) N 360 0 min 2,0 UV-I 334 W/m 4,8 km/h (1 Bft)
20.05.2024 11:55 17,1 C 17,1 C 17,1 C 83 % 1012,4 hPa 0,0 l/m 1,6 km/h (1 Bft) N 360 0 min 2,0 UV-I 334 W/m 4,8 km/h (1 Bft)
20.05.2024 11:50 17,1 C 16,9 C 17,1 C 84 % 1012,5 hPa 0,0 l/m 1,6 km/h (1 Bft) N 360 0 min 1,8 UV-I 299 W/m 4,8 km/h (1 Bft)
20.05.2024 11:45 16,9 C 16,9 C 17,0 C 83 % 1012,5 hPa 0,0 l/m 1,6 km/h (1 Bft) N 360 0 min 1,6 UV-I 237 W/m 4,8 km/h (1 Bft)
20.05.2024 11:40 17,0 C 16,9 C 17,0 C 84 % 1012,5 hPa 0,0 l/m 1,6 km/h (1 Bft) N-NO 22 0 min 1,4 UV-I 193 W/m 4,8 km/h (1 Bft)
20.05.2024 11:35 16,9 C 16,8 C 16,9 C 84 % 1012,6 hPa 0,0 l/m 1,6 km/h (1 Bft) N-NO 22 0 min 1,3 UV-I 216 W/m 4,8 km/h (1 Bft)
20.05.2024 11:30 16,9 C 16,8 C 16,9 C 84 % 1012,6 hPa 0,0 l/m 1,6 km/h (1 Bft) W-NW 292 5 min 2,3 UV-I 612 W/m 6,4 km/h (2 Bft)
20.05.2024 11:25 16,9 C 16,9 C 17,1 C 85 % 1012,6 hPa 0,0 l/m 3,2 km/h (1 Bft) W 270 0 min 2,4 UV-I 415 W/m 6,4 km/h (2 Bft)
20.05.2024 11:20 17,1 C 17,1 C 17,2 C 85 % 1012,6 hPa 0,0 l/m 1,6 km/h (1 Bft) W 270 0 min 1,7 UV-I 294 W/m 4,8 km/h (1 Bft)
20.05.2024 11:15 17,2 C 17,1 C 17,3 C 85 % 1012,6 hPa 0,0 l/m 4,8 km/h (1 Bft) W 270 0 min 1,9 UV-I 367 W/m 11,3 km/h (2 Bft)
20.05.2024 11:10 17,2 C 17,1 C 17,2 C 87 % 1012,6 hPa 0,0 l/m 1,6 km/h (1 Bft) S 180 5 min 2,1 UV-I 448 W/m 6,4 km/h (2 Bft)
20.05.2024 11:05 17,1 C 16,8 C 17,1 C 90 % 1012,7 hPa 0,0 l/m 1,6 km/h (1 Bft) S-SW 202 5 min 2,6 UV-I 610 W/m 8,0 km/h (2 Bft)
20.05.2024 11:00 16,7 C 16,3 C 16,7 C 90 % 1012,7 hPa 0,0 l/m 0,0 km/h (0 Bft) N 0 5 min 2,8 UV-I 621 W/m 0,0 km/h (0 Bft)
20.05.2024 10:55 16,3 C 16,0 C 16,3 C 91 % 1012,6 hPa 0,0 l/m 0,0 km/h (0 Bft) N 0 5 min 3,0 UV-I 788 W/m 0,0 km/h (0 Bft)
20.05.2024 10:50 15,9 C 15,9 C 16,0 C 90 % 1012,6 hPa 0,0 l/m 0,0 km/h (0 Bft) N 0 5 min 2,9 UV-I 798 W/m 0,0 km/h (0 Bft)
20.05.2024 10:45 15,9 C 15,9 C 16,1 C 91 % 1012,6 hPa 0,0 l/m 1,6 km/h (1 Bft) S 180 5 min 2,2 UV-I 425 W/m 4,8 km/h (1 Bft)
20.05.2024 10:40 16,1 C 16,1 C 16,2 C 92 % 1012,6 hPa 0,0 l/m 1,6 km/h (1 Bft) S 180 5 min 1,9 UV-I 388 W/m 4,8 km/h (1 Bft)
20.05.2024 10:35 16,1 C 15,7 C 16,1 C 94 % 1012,7 hPa 0,0 l/m 1,6 km/h (1 Bft) S 180 5 min 2,4 UV-I 547 W/m 9,7 km/h (2 Bft)
20.05.2024 10:30 15,7 C 15,6 C 15,7 C 94 % 1012,5 hPa 0,0 l/m 0,0 km/h (0 Bft) S-SO 157 5 min 2,5 UV-I 722 W/m 3,2 km/h (1 Bft)
20.05.2024 10:25 15,6 C 15,5 C 15,6 C 94 % 1012,6 hPa 0,0 l/m 0,0 km/h (0 Bft) N 0 5 min 2,2 UV-I 599 W/m 0,0 km/h (0 Bft)
20.05.2024 10:20 15,5 C 15,3 C 15,5 C 95 % 1012,6 hPa 0,0 l/m 0,0 km/h (0 Bft) N 0 0 min 1,4 UV-I 287 W/m 0,0 km/h (0 Bft)
20.05.2024 10:15 15,3 C 15,2 C 15,3 C 95 % 1012,6 hPa 0,0 l/m 0,0 km/h (0 Bft) N 0 0 min 1,4 UV-I 271 W/m 0,0 km/h (0 Bft)
20.05.2024 10:10 15,2 C 15,1 C 15,2 C 95 % 1012,5 hPa 0,0 l/m 0,0 km/h (0 Bft) N 0 0 min 1,2 UV-I 227 W/m 0,0 km/h (0 Bft)
20.05.2024 10:05 15,1 C 15,1 C 15,1 C 95 % 1012,4 hPa 0,0 l/m 0,0 km/h (0 Bft) N 0 0 min 1,2 UV-I 229 W/m 0,0 km/h (0 Bft)
20.05.2024 10:00 15,1 C 15,0 C 15,1 C 95 % 1012,4 hPa 0,0 l/m 0,0 km/h (0 Bft) N 0 0 min 1,1 UV-I 211 W/m 0,0 km/h (0 Bft)
20.05.2024 09:55 15,1 C 15,0 C 15,1 C 96 % 1012,5 hPa 0,0 l/m 0,0 km/h (0 Bft) N 0 0 min 1,1 UV-I 209 W/m 0,0 km/h (0 Bft)
20.05.2024 09:50 15,0 C 14,9 C 15,0 C 96 % 1012,4 hPa 0,0 l/m 0,0 km/h (0 Bft) N 0 0 min 1,0 UV-I 195 W/m 0,0 km/h (0 Bft)
20.05.2024 09:45 14,9 C 14,8 C 14,9 C 96 % 1012,3 hPa 0,0 l/m 0,0 km/h (0 Bft) N 0 0 min 0,9 UV-I 183 W/m 0,0 km/h (0 Bft)
20.05.2024 09:40 14,8 C 14,8 C 14,8 C 96 % 1012,3 hPa 0,0 l/m 0,0 km/h (0 Bft) N 0 0 min 0,9 UV-I 183 W/m 0,0 km/h (0 Bft)
20.05.2024 09:35 14,8 C 14,8 C 14,8 C 96 % 1012,3 hPa 0,0 l/m 0,0 km/h (0 Bft) N 0 0 min 0,9 UV-I 193 W/m 0,0 km/h (0 Bft)
20.05.2024 09:30 14,8 C 14,7 C 14,8 C 96 % 1012,3 hPa 0,0 l/m 0,0 km/h (0 Bft) N 0 0 min 0,9 UV-I 192 W/m 0,0 km/h (0 Bft)
20.05.2024 09:25 14,7 C 14,7 C 14,8 C 96 % 1012,3 hPa 0,0 l/m 0,0 km/h (0 Bft) N 0 0 min 0,8 UV-I 188 W/m 0,0 km/h (0 Bft)
20.05.2024 09:20 14,7 C 14,6 C 14,7 C 97 % 1012,2 hPa 0,0 l/m 0,0 km/h (0 Bft) N 0 0 min 0,8 UV-I 186 W/m 0,0 km/h (0 Bft)
20.05.2024 09:15 14,6 C 14,5 C 14,6 C 97 % 1012,2 hPa 0,0 l/m 0,0 km/h (0 Bft) N 0 0 min 0,9 UV-I 230 W/m 0,0 km/h (0 Bft)
20.05.2024 09:10 14,5 C 14,4 C 14,5 C 96 % 1012,1 hPa 0,0 l/m 0,0 km/h (0 Bft) N 0 0 min 0,8 UV-I 265 W/m 0,0 km/h (0 Bft)
20.05.2024 09:05 14,5 C 14,4 C 14,5 C 97 % 1012,0 hPa 0,0 l/m 0,0 km/h (0 Bft) N 0 0 min 0,8 UV-I 192 W/m 0,0 km/h (0 Bft)
20.05.2024 09:00 14,4 C 14,4 C 14,5 C 97 % 1012,1 hPa 0,0 l/m 0,0 km/h (0 Bft) N 0 0 min 0,8 UV-I 179 W/m 0,0 km/h (0 Bft)
20.05.2024 08:55 14,4 C 14,4 C 14,4 C 97 % 1012,0 hPa 0,0 l/m 0,0 km/h (0 Bft) N 0 0 min 0,7 UV-I 178 W/m 0,0 km/h (0 Bft)
20.05.2024 08:50 14,4 C 14,3 C 14,4 C 97 % 1012,0 hPa 0,0 l/m 0,0 km/h (0 Bft) N 0 0 min 0,7 UV-I 169 W/m 0,0 km/h (0 Bft)
20.05.2024 08:45 14,3 C 14,2 C 14,3 C 97 % 1011,9 hPa 0,0 l/m 0,0 km/h (0 Bft) N 0 0 min 0,7 UV-I 158 W/m 0,0 km/h (0 Bft)
20.05.2024 08:40 14,2 C 14,1 C 14,2 C 97 % 1012,0 hPa 0,0 l/m 0,0 km/h (0 Bft) N 0 0 min 0,7 UV-I 160 W/m 0,0 km/h (0 Bft)
20.05.2024 08:35 14,1 C 14,0 C 14,1 C 97 % 1012,0 hPa 0,0 l/m 0,0 km/h (0 Bft) N 0 0 min 0,7 UV-I 148 W/m 0,0 km/h (0 Bft)
20.05.2024 08:30 14,0 C 13,8 C 14,0 C 97 % 1012,0 hPa 0,0 l/m 0,0 km/h (0 Bft) N 0 0 min 0,6 UV-I 127 W/m 0,0 km/h (0 Bft)
20.05.2024 08:25 13,8 C 13,7 C 13,8 C 97 % 1012,0 hPa 0,0 l/m 1,6 km/h (1 Bft) NO 45 0 min 0,5 UV-I 121 W/m 4,8 km/h (1 Bft)
20.05.2024 08:20 13,7 C 13,7 C 13,7 C 96 % 1012,0 hPa 0,0 l/m 0,0 km/h (0 Bft) N 0 0 min 0,5 UV-I 111 W/m 0,0 km/h (0 Bft)
20.05.2024 08:15 13,7 C 13,6 C 13,7 C 96 % 1012,0 hPa 0,0 l/m 0,0 km/h (0 Bft) N 0 0 min 0,0 UV-I 102 W/m 0,0 km/h (0 Bft)
20.05.2024 08:10 13,7 C 13,6 C 13,7 C 96 % 1012,0 hPa 0,0 l/m 0,0 km/h (0 Bft) N 0 0 min 0,0 UV-I 98 W/m 0,0 km/h (0 Bft)
20.05.2024 08:05 13,6 C 13,6 C 13,7 C 97 % 1012,0 hPa 0,0 l/m 0,0 km/h (0 Bft) N 0 0 min 0,0 UV-I 90 W/m 0,0 km/h (0 Bft)
20.05.2024 08:00 13,6 C 13,6 C 13,6 C 96 % 1011,9 hPa 0,0 l/m 0,0 km/h (0 Bft) N 0 0 min 0,0 UV-I 83 W/m 0,0 km/h (0 Bft)
20.05.2024 07:55 13,6 C 13,5 C 13,6 C 97 % 1012,0 hPa 0,0 l/m 0,0 km/h (0 Bft) N 0 0 min 0,0 UV-I 81 W/m 0,0 km/h (0 Bft)
20.05.2024 07:50 13,4 C 13,4 C 13,5 C 97 % 1012,0 hPa 0,0 l/m 0,0 km/h (0 Bft) N 0 0 min 0,0 UV-I 79 W/m 0,0 km/h (0 Bft)
20.05.2024 07:45 13,4 C 13,3 C 13,4 C 97 % 1011,9 hPa 0,0 l/m 0,0 km/h (0 Bft) N 0 0 min 0,0 UV-I 83 W/m 0,0 km/h (0 Bft)
20.05.2024 07:40 13,3 C 13,3 C 13,3 C 97 % 1012,0 hPa 0,0 l/m 0,0 km/h (0 Bft) N 0 0 min 0,0 UV-I 81 W/m 0,0 km/h (0 Bft)
20.05.2024 07:35 13,3 C 13,1 C 13,3 C 97 % 1012,0 hPa 0,0 l/m 0,0 km/h (0 Bft) N 0 0 min 0,0 UV-I 76 W/m 0,0 km/h (0 Bft)
20.05.2024 07:30 13,1 C 13,0 C 13,1 C 97 % 1012,0 hPa 0,0 l/m 0,0 km/h (0 Bft) N 0 0 min 0,0 UV-I 77 W/m 0,0 km/h (0 Bft)
20.05.2024 07:25 13,0 C 12,9 C 13,0 C 96 % 1012,0 hPa 0,0 l/m 0,0 km/h (0 Bft) N 0 0 min 0,0 UV-I 74 W/m 0,0 km/h (0 Bft)
20.05.2024 07:20 12,9 C 12,9 C 12,9 C 96 % 1012,0 hPa 0,0 l/m 0,0 km/h (0 Bft) N 0 0 min 0,0 UV-I 69 W/m 0,0 km/h (0 Bft)
20.05.2024 07:15 12,9 C 12,8 C 12,9 C 96 % 1012,0 hPa 0,0 l/m 0,0 km/h (0 Bft) N 0 0 min 0,0 UV-I 63 W/m 0,0 km/h (0 Bft)
20.05.2024 07:10 12,8 C 12,7 C 12,8 C 96 % 1012,0 hPa 0,0 l/m 0,0 km/h (0 Bft) N 0 0 min 0,0 UV-I 58 W/m 0,0 km/h (0 Bft)
20.05.2024 07:05 12,7 C 12,7 C 12,8 C 96 % 1011,9 hPa 0,0 l/m 0,0 km/h (0 Bft) N 0 0 min 0,0 UV-I 53 W/m 0,0 km/h (0 Bft)
20.05.2024 07:00 12,7 C 12,6 C 12,7 C 96 % 1011,9 hPa 0,0 l/m 0,0 km/h (0 Bft) N 0 0 min 0,0 UV-I 47 W/m 0,0 km/h (0 Bft)
20.05.2024 06:55 12,6 C 12,6 C 12,7 C 96 % 1011,9 hPa 0,0 l/m 0,0 km/h (0 Bft) N 0 0 min 0,0 UV-I 40 W/m 0,0 km/h (0 Bft)
20.05.2024 06:50 12,6 C 12,5 C 12,6 C 96 % 1011,9 hPa 0,0 l/m 0,0 km/h (0 Bft) N 0 0 min 0,0 UV-I 39 W/m 0,0 km/h (0 Bft)
20.05.2024 06:45 12,5 C 12,3 C 12,5 C 96 % 1011,9 hPa 0,0 l/m 0,0 km/h (0 Bft) N 0 0 min 0,0 UV-I 33 W/m 0,0 km/h (0 Bft)
20.05.2024 06:40 12,4 C 12,4 C 12,4 C 96 % 1011,8 hPa 0,0 l/m 0,0 km/h (0 Bft) N 0 0 min 0,0 UV-I 25 W/m 0,0 km/h (0 Bft)
20.05.2024 06:35 12,4 C 12,4 C 12,4 C 96 % 1011,8 hPa 0,0 l/m 0,0 km/h (0 Bft) N 0 0 min 0,0 UV-I 19 W/m 0,0 km/h (0 Bft)
20.05.2024 06:30 12,4 C 12,4 C 12,4 C 96 % 1011,8 hPa 0,0 l/m 0,0 km/h (0 Bft) N 0 0 min 0,0 UV-I 18 W/m 0,0 km/h (0 Bft)
20.05.2024 06:25 12,4 C 12,4 C 12,4 C 96 % 1011,8 hPa 0,0 l/m 0,0 km/h (0 Bft) N 0 0 min 0,0 UV-I 14 W/m 0,0 km/h (0 Bft)
20.05.2024 06:20 12,4 C 12,4 C 12,5 C 96 % 1011,8 hPa 0,0 l/m 0,0 km/h (0 Bft) N 0 0 min 0,0 UV-I 14 W/m 0,0 km/h (0 Bft)
20.05.2024 06:15 12,4 C 12,4 C 12,5 C 96 % 1011,7 hPa 0,0 l/m 0,0 km/h (0 Bft) N 0 0 min 0,0 UV-I 14 W/m 0,0 km/h (0 Bft)
20.05.2024 06:10 12,5 C 12,5 C 12,6 C 96 % 1011,7 hPa 0,0 l/m 0,0 km/h (0 Bft) N 0 0 min 0,0 UV-I 12 W/m 0,0 km/h (0 Bft)
20.05.2024 06:05 12,5 C 12,5 C 12,6 C 96 % 1011,8 hPa 0,0 l/m 0,0 km/h (0 Bft) N 0 0 min 0,0 UV-I 11 W/m 0,0 km/h (0 Bft)
20.05.2024 06:00 12,6 C 12,6 C 12,7 C 96 % 1011,8 hPa 0,0 l/m 0,0 km/h (0 Bft) N 0 0 min 0,0 UV-I 9 W/m 0,0 km/h (0 Bft)
20.05.2024 05:55 12,7 C 12,6 C 12,7 C 96 % 1011,8 hPa 0,0 l/m 0,0 km/h (0 Bft) N 0 0 min 0,0 UV-I 7 W/m 0,0 km/h (0 Bft)
20.05.2024 05:50 12,7 C 12,7 C 12,8 C 96 % 1011,8 hPa 0,0 l/m 0,0 km/h (0 Bft) N 0 0 min 0,0 UV-I 5 W/m 0,0 km/h (0 Bft)
20.05.2024 05:45 12,8 C 12,8 C 12,8 C 96 % 1011,8 hPa 0,0 l/m 0,0 km/h (0 Bft) N 0 0 min 0,0 UV-I 0 W/m 0,0 km/h (0 Bft)
20.05.2024 05:40 12,8 C 12,8 C 12,9 C 96 % 1011,8 hPa 0,0 l/m 0,0 km/h (0 Bft) N 0 0 min 0,0 UV-I 0 W/m 0,0 km/h (0 Bft)
20.05.2024 05:35 12,8 C 12,8 C 12,9 C 96 % 1011,9 hPa 0,0 l/m 0,0 km/h (0 Bft) N 0 0 min 0,0 UV-I 0 W/m 0,0 km/h (0 Bft)
20.05.2024 05:30 12,9 C 12,8 C 12,9 C 96 % 1011,8 hPa 0,0 l/m 0,0 km/h (0 Bft) N 0 0 min 0,0 UV-I 0 W/m 0,0 km/h (0 Bft)
20.05.2024 05:25 12,9 C 12,9 C 12,9 C 96 % 1011,8 hPa 0,0 l/m 0,0 km/h (0 Bft) N 0 0 min 0,0 UV-I 0 W/m 0,0 km/h (0 Bft)
20.05.2024 05:20 12,9 C 12,9 C 12,9 C 96 % 1011,7 hPa 0,0 l/m 0,0 km/h (0 Bft) N 0 0 min 0,0 UV-I 0 W/m 0,0 km/h (0 Bft)
20.05.2024 05:15 12,9 C 12,9 C 12,9 C 96 % 1011,8 hPa 0,0 l/m 0,0 km/h (0 Bft) N 0 0 min 0,0 UV-I 0 W/m 0,0 km/h (0 Bft)
20.05.2024 05:10 12,9 C 12,8 C 12,9 C 96 % 1011,8 hPa 0,0 l/m 0,0 km/h (0 Bft) N 0 0 min 0,0 UV-I 0 W/m 0,0 km/h (0 Bft)
20.05.2024 05:05 12,9 C 12,8 C 12,9 C 96 % 1011,8 hPa 0,0 l/m 0,0 km/h (0 Bft) N 0 0 min 0,0 UV-I 0 W/m 0,0 km/h (0 Bft)
20.05.2024 05:00 12,9 C 12,8 C 12,9 C 96 % 1011,8 hPa 0,0 l/m 0,0 km/h (0 Bft) N 0 0 min 0,0 UV-I 0 W/m 0,0 km/h (0 Bft)
20.05.2024 04:55 12,8 C 12,8 C 12,8 C 96 % 1011,7 hPa 0,0 l/m 0,0 km/h (0 Bft) N 0 0 min 0,0 UV-I 0 W/m 0,0 km/h (0 Bft)
20.05.2024 04:50 12,8 C 12,8 C 12,8 C 96 % 1011,8 hPa 0,0 l/m 0,0 km/h (0 Bft) N 0 0 min 0,0 UV-I 0 W/m 0,0 km/h (0 Bft)
20.05.2024 04:45 12,8 C 12,7 C 12,8 C 96 % 1011,8 hPa 0,0 l/m 1,6 km/h (1 Bft) W-SW 247 0 min 0,0 UV-I 0 W/m 3,2 km/h (1 Bft)
20.05.2024 04:40 12,8 C 12,7 C 12,8 C 96 % 1011,8 hPa 0,0 l/m 3,2 km/h (1 Bft) W-SW 247 0 min 0,0 UV-I 0 W/m 4,8 km/h (1 Bft)
20.05.2024 04:35 12,7 C 12,7 C 12,8 C 96 % 1011,7 hPa 0,0 l/m 3,2 km/h (1 Bft) W-SW 247 0 min 0,0 UV-I 0 W/m 6,4 km/h (2 Bft)
20.05.2024 04:30 12,8 C 12,8 C 12,8 C 95 % 1011,9 hPa 0,0 l/m 1,6 km/h (1 Bft) W-SW 247 0 min 0,0 UV-I 0 W/m 4,8 km/h (1 Bft)
20.05.2024 04:25 12,8 C 12,7 C 12,8 C 96 % 1011,9 hPa 0,0 l/m 0,0 km/h (0 Bft) N 0 0 min 0,0 UV-I 0 W/m 0,0 km/h (0 Bft)
20.05.2024 04:20 12,8 C 12,8 C 12,8 C 96 % 1011,9 hPa 0,0 l/m 0,0 km/h (0 Bft) W-SW 247 0 min 0,0 UV-I 0 W/m 3,2 km/h (1 Bft)
20.05.2024 04:15 12,8 C 12,8 C 12,8 C 96 % 1011,9 hPa 0,0 l/m 4,8 km/h (1 Bft) W-SW 247 0 min 0,0 UV-I 0 W/m 6,4 km/h (2 Bft)
20.05.2024 04:10 12,8 C 12,8 C 12,8 C 95 % 1011,8 hPa 0,0 l/m 4,8 km/h (1 Bft) W-SW 247 0 min 0,0 UV-I 0 W/m 6,4 km/h (2 Bft)
20.05.2024 04:05 12,8 C 12,8 C 12,9 C 95 % 1011,8 hPa 0,0 l/m 4,8 km/h (1 Bft) W-SW 247 0 min 0,0 UV-I 0 W/m 9,7 km/h (2 Bft)
20.05.2024 04:00 12,9 C 12,9 C 13,1 C 95 % 1011,8 hPa 0,0 l/m 4,8 km/h (1 Bft) W-SW 247 0 min 0,0 UV-I 0 W/m 6,4 km/h (2 Bft)
20.05.2024 03:55 13,1 C 13,1 C 13,1 C 95 % 1011,8 hPa 0,0 l/m 4,8 km/h (1 Bft) SW 225 0 min 0,0 UV-I 0 W/m 8,0 km/h (2 Bft)
20.05.2024 03:50 13,1 C 13,1 C 13,2 C 95 % 1011,8 hPa 0,0 l/m 4,8 km/h (1 Bft) W-SW 247 0 min 0,0 UV-I 0 W/m 8,0 km/h (2 Bft)
20.05.2024 03:45 13,2 C 13,2 C 13,3 C 95 % 1011,8 hPa 0,0 l/m 3,2 km/h (1 Bft) W-SW 247 0 min 0,0 UV-I 0 W/m 6,4 km/h (2 Bft)
20.05.2024 03:40 13,3 C 13,3 C 13,3 C 96 % 1011,9 hPa 0,0 l/m 3,2 km/h (1 Bft) W 270 0 min 0,0 UV-I 0 W/m 6,4 km/h (2 Bft)
20.05.2024 03:35 13,3 C 13,3 C 13,3 C 96 % 1011,9 hPa 0,0 l/m 3,2 km/h (1 Bft) W 270 0 min 0,0 UV-I 0 W/m 4,8 km/h (1 Bft)
20.05.2024 03:30 13,3 C 13,3 C 13,3 C 96 % 1011,8 hPa 0,0 l/m 3,2 km/h (1 Bft) W 270 0 min 0,0 UV-I 0 W/m 6,4 km/h (2 Bft)
20.05.2024 03:25 13,3 C 13,3 C 13,4 C 96 % 1011,9 hPa 0,0 l/m 3,2 km/h (1 Bft) W-NW 292 0 min 0,0 UV-I 0 W/m 6,4 km/h (2 Bft)
20.05.2024 03:20 13,3 C 13,3 C 13,4 C 96 % 1012,0 hPa 0,0 l/m 4,8 km/h (1 Bft) W-NW 292 0 min 0,0 UV-I 0 W/m 6,4 km/h (2 Bft)
20.05.2024 03:15 13,3 C 13,3 C 13,3 C 96 % 1012,0 hPa 0,0 l/m 3,2 km/h (1 Bft) W-NW 292 0 min 0,0 UV-I 0 W/m 6,4 km/h (2 Bft)
20.05.2024 03:10 13,3 C 13,3 C 13,3 C 96 % 1012,0 hPa 0,0 l/m 1,6 km/h (1 Bft) W 270 0 min 0,0 UV-I 0 W/m 4,8 km/h (1 Bft)
20.05.2024 03:05 13,3 C 13,3 C 13,3 C 96 % 1012,0 hPa 0,0 l/m 3,2 km/h (1 Bft) W 270 0 min 0,0 UV-I 0 W/m 6,4 km/h (2 Bft)
20.05.2024 03:00 13,3 C 13,3 C 13,3 C 96 % 1011,9 hPa 0,0 l/m 1,6 km/h (1 Bft) W 270 0 min 0,0 UV-I 0 W/m 6,4 km/h (2 Bft)
20.05.2024 02:55 13,3 C 13,3 C 13,3 C 96 % 1012,0 hPa 0,0 l/m 0,0 km/h (0 Bft) N 0 0 min 0,0 UV-I 0 W/m 0,0 km/h (0 Bft)
20.05.2024 02:50 13,3 C 13,3 C 13,3 C 96 % 1012,1 hPa 0,0 l/m 0,0 km/h (0 Bft) N 0 0 min 0,0 UV-I 0 W/m 0,0 km/h (0 Bft)
20.05.2024 02:45 13,3 C 13,2 C 13,3 C 96 % 1012,0 hPa 0,0 l/m 0,0 km/h (0 Bft) N 0 0 min 0,0 UV-I 0 W/m 0,0 km/h (0 Bft)
20.05.2024 02:40 13,2 C 13,2 C 13,2 C 95 % 1012,1 hPa 0,0 l/m 0,0 km/h (0 Bft) N 0 0 min 0,0 UV-I 0 W/m 0,0 km/h (0 Bft)
20.05.2024 02:35 13,2 C 13,1 C 13,2 C 95 % 1012,1 hPa 0,0 l/m 0,0 km/h (0 Bft) N 0 0 min 0,0 UV-I 0 W/m 0,0 km/h (0 Bft)
20.05.2024 02:30 13,1 C 13,1 C 13,1 C 95 % 1012,1 hPa 0,2 l/m 0,0 km/h (0 Bft) N 0 0 min 0,0 UV-I 0 W/m 0,0 km/h (0 Bft)
20.05.2024 02:25 13,1 C 13,1 C 13,1 C 95 % 1012,1 hPa 0,0 l/m 0,0 km/h (0 Bft) N 0 0 min 0,0 UV-I 0 W/m 0,0 km/h (0 Bft)
20.05.2024 02:20 13,1 C 13,1 C 13,1 C 95 % 1012,1 hPa 0,0 l/m 0,0 km/h (0 Bft) W 270 0 min 0,0 UV-I 0 W/m 3,2 km/h (1 Bft)
20.05.2024 02:15 13,1 C 13,1 C 13,2 C 95 % 1012,1 hPa 0,0 l/m 1,6 km/h (1 Bft) W 270 0 min 0,0 UV-I 0 W/m 4,8 km/h (1 Bft)
20.05.2024 02:10 13,3 C 13,2 C 13,3 C 95 % 1012,0 hPa 0,0 l/m 3,2 km/h (1 Bft) W 270 0 min 0,0 UV-I 0 W/m 4,8 km/h (1 Bft)
20.05.2024 02:05 13,3 C 13,3 C 13,4 C 95 % 1012,0 hPa 0,0 l/m 3,2 km/h (1 Bft) W 270 0 min 0,0 UV-I 0 W/m 9,7 km/h (2 Bft)
20.05.2024 02:00 13,4 C 13,4 C 13,5 C 95 % 1011,9 hPa 0,0 l/m 0,0 km/h (0 Bft) N 0 0 min 0,0 UV-I 0 W/m 0,0 km/h (0 Bft)
20.05.2024 01:55 13,5 C 13,5 C 13,6 C 95 % 1011,9 hPa 0,0 l/m 0,0 km/h (0 Bft) N 0 0 min 0,0 UV-I 0 W/m 0,0 km/h (0 Bft)
20.05.2024 01:50 13,6 C 13,5 C 13,6 C 95 % 1011,9 hPa 0,0 l/m 0,0 km/h (0 Bft) N 0 0 min 0,0 UV-I 0 W/m 0,0 km/h (0 Bft)
20.05.2024 01:45 13,6 C 13,6 C 13,7 C 95 % 1011,8 hPa 0,0 l/m 0,0 km/h (0 Bft) N 0 0 min 0,0 UV-I 0 W/m 0,0 km/h (0 Bft)
20.05.2024 01:40 13,6 C 13,6 C 13,7 C 95 % 1011,9 hPa 0,0 l/m 0,0 km/h (0 Bft) N 0 0 min 0,0 UV-I 0 W/m 0,0 km/h (0 Bft)
20.05.2024 01:35 13,6 C 13,6 C 13,7 C 95 % 1011,8 hPa 0,0 l/m 0,0 km/h (0 Bft) N 0 0 min 0,0 UV-I 0 W/m 0,0 km/h (0 Bft)
20.05.2024 01:30 13,7 C 13,7 C 13,8 C 95 % 1011,9 hPa 0,0 l/m 0,0 km/h (0 Bft) N 0 0 min 0,0 UV-I 0 W/m 0,0 km/h (0 Bft)
20.05.2024 01:25 13,8 C 13,8 C 13,8 C 95 % 1011,8 hPa 0,0 l/m 0,0 km/h (0 Bft) N 0 0 min 0,0 UV-I 0 W/m 0,0 km/h (0 Bft)
20.05.2024 01:20 13,8 C 13,8 C 13,8 C 95 % 1011,7 hPa 0,0 l/m 0,0 km/h (0 Bft) N 0 0 min 0,0 UV-I 0 W/m 0,0 km/h (0 Bft)
20.05.2024 01:15 13,8 C 13,8 C 13,8 C 95 % 1011,8 hPa 0,0 l/m 0,0 km/h (0 Bft) N 0 0 min 0,0 UV-I 0 W/m 0,0 km/h (0 Bft)
20.05.2024 01:10 13,8 C 13,8 C 13,9 C 95 % 1011,8 hPa 0,0 l/m 0,0 km/h (0 Bft) N 0 0 min 0,0 UV-I 0 W/m 0,0 km/h (0 Bft)
20.05.2024 01:05 13,8 C 13,8 C 13,9 C 95 % 1011,8 hPa 0,0 l/m 0,0 km/h (0 Bft) N 0 0 min 0,0 UV-I 0 W/m 0,0 km/h (0 Bft)
20.05.2024 01:00 13,9 C 13,8 C 13,9 C 95 % 1011,9 hPa 0,0 l/m 0,0 km/h (0 Bft) N 0 0 min 0,0 UV-I 0 W/m 0,0 km/h (0 Bft)
20.05.2024 00:55 13,9 C 13,8 C 13,9 C 95 % 1011,9 hPa 0,0 l/m 0,0 km/h (0 Bft) N 0 0 min 0,0 UV-I 0 W/m 0,0 km/h (0 Bft)
20.05.2024 00:50 13,8 C 13,8 C 13,9 C 95 % 1012,0 hPa 0,0 l/m 0,0 km/h (0 Bft) N 0 0 min 0,0 UV-I 0 W/m 0,0 km/h (0 Bft)
20.05.2024 00:45 13,9 C 13,8 C 13,9 C 95 % 1012,0 hPa 0,0 l/m 0,0 km/h (0 Bft) N 0 0 min 0,0 UV-I 0 W/m 0,0 km/h (0 Bft)
20.05.2024 00:40 13,9 C 13,9 C 13,9 C 95 % 1012,0 hPa 0,0 l/m 0,0 km/h (0 Bft) N 0 0 min 0,0 UV-I 0 W/m 0,0 km/h (0 Bft)
20.05.2024 00:35 13,9 C 13,9 C 14,0 C 95 % 1011,9 hPa 0,0 l/m 0,0 km/h (0 Bft) N 0 0 min 0,0 UV-I 0 W/m 0,0 km/h (0 Bft)
20.05.2024 00:30 13,9 C 13,9 C 14,0 C 95 % 1011,9 hPa 0,0 l/m 0,0 km/h (0 Bft) N 0 0 min 0,0 UV-I 0 W/m 0,0 km/h (0 Bft)
20.05.2024 00:25 14,0 C 14,0 C 14,0 C 95 % 1011,9 hPa 0,0 l/m 0,0 km/h (0 Bft) N 0 0 min 0,0 UV-I 0 W/m 0,0 km/h (0 Bft)
20.05.2024 00:20 14,0 C 14,0 C 14,0 C 95 % 1011,9 hPa 0,0 l/m 0,0 km/h (0 Bft) N 0 0 min 0,0 UV-I 0 W/m 0,0 km/h (0 Bft)
20.05.2024 00:15 14,1 C 14,0 C 14,1 C 95 % 1011,9 hPa 0,0 l/m 0,0 km/h (0 Bft) N 0 0 min 0,0 UV-I 0 W/m 0,0 km/h (0 Bft)
20.05.2024 00:10 14,0 C 13,9 C 14,1 C 95 % 1011,8 hPa 0,0 l/m 0,0 km/h (0 Bft) N 0 0 min 0,0 UV-I 0 W/m 0,0 km/h (0 Bft)
20.05.2024 00:05 14,0 C 13,9 C 14,0 C 94 % 1011,8 hPa 0,0 l/m 0,0 km/h (0 Bft) N 0 0 min 0,0 UV-I 0 W/m 0,0 km/h (0 Bft)
20.05.2024 00:00 13,9 C 13,9 C 14,0 C 94 % 1011,6 hPa 0,2 l/m 0,0 km/h (0 Bft) N 0 0 min 0,0 UV-I 0 W/m 0,0 km/h (0 Bft)
_ Min-Zeit 06:45 06:45 06:25 18:35 18:30 - 00:00 - - - - - 00:00
Minimum _ 12,3 C 12,3 C 12,4 C 55 % 1010,3 hPa - 0,0 km/h (0 Bft) - - - - - 0,0 km/h (0 Bft)
_ Max-Zeit 16:30 16:10 16:30 07:30 10:35 00:00 17:20 - - 10:25 14:10 12:35 17:25
Maximum _ 23,7 C 23,5 C 23,7 C 97 % 1012,7 hPa 0,2 l/m 8,0 km/h
N-NO (2 Bft)
- - 5 min 4,7 UV-I 984 W/m 16,1 km/h
N-NO (3 Bft)
Durchschnitt _ 16,7 C 16,6 C 16,7 C 84 % 1011,8 hPa #0,4 l/m 1,7 km/h (1 Bft) W-SW - #7:00 h 2,5 UV-I 456 W/m 4,2 km/h (1 Bft)